• Em Portugal
  • Lista de países
  • Para 7 dias
  • Temperatura da água
  • Mapas de satélite
  • Mapa do tempo
  • Widgets de tempo
  • user-avatar
    Iniciar Sessão

    Previsão horária em Escuintla

    Hoje, 20 Outubro, Sexta-feira

    Tempo Temperatura Precipitação Vento Pressão Humidade
    00:00 +25°C° 0 mm 2 m/s 728 mmHg 82%
    01:00 +25°C° 0 mm 2 m/s 728 mmHg 81%
    02:00 +25°C° 0 mm 2 m/s 728 mmHg 81%
    03:00 +25°C° 0 mm 1 m/s 728 mmHg 80%
    04:00 +25°C° 0 mm 1 m/s 728 mmHg 79%
    05:00 +25°C° 0 mm 1 m/s 728 mmHg 79%
    06:00 +25°C° 0 mm 1 m/s 728 mmHg 79%
    07:00 +27°C° 0 mm 1 m/s 728 mmHg 73%
    08:00 +29°C° 0 mm 1 m/s 729 mmHg 68%
    09:00 +31°C° 0 mm 1 m/s 729 mmHg 63%
    10:00 +32°C° 0,1 mm 2 m/s 729 mmHg 62%
    11:00 +34°C° 0,1 mm 2 m/s 728 mmHg 61%
    12:00 +34°C° 0,1 mm 2 m/s 728 mmHg 59%
    13:00 +34°C° 0,8 mm 2 m/s 727 mmHg 64%
    14:00 +32°C° 0,8 mm 2 m/s 727 mmHg 69%
    15:00 +32°C° 0,8 mm 2 m/s 726 mmHg 73%
    16:00 +30°C° 0,5 mm 2 m/s 726 mmHg 78%
    17:00 +29°C° 0,5 mm 1 m/s 726 mmHg 83%
    18:00 +27°C° 0,5 mm 1 m/s 727 mmHg 88%
    19:00 +27°C° 0,1 mm 1 m/s 727 mmHg 89%
    20:00 +26°C° 0,1 mm 1 m/s 728 mmHg 89%
    21:00 +26°C° 0,1 mm 1 m/s 728 mmHg 89%
    22:00 +26°C° 0 mm 1 m/s 728 mmHg 88%
    23:00 +26°C° 0 mm 1 m/s 728 mmHg 87%

    Amanhã, 21 Outubro, Sábado

    Tempo Temperatura Precipitação Vento Pressão Humidade
    00:00 +25°C° 0 mm 2 m/s 728 mmHg 86%
    01:00 +25°C° 0 mm 2 m/s 728 mmHg 85%
    02:00 +25°C° 0 mm 1 m/s 727 mmHg 83%
    03:00 +25°C° 0 mm 1 m/s 727 mmHg 82%
    04:00 +25°C° 0 mm 1 m/s 727 mmHg 81%
    05:00 +25°C° 0 mm 1 m/s 727 mmHg 81%
    06:00 +25°C° 0 mm 1 m/s 727 mmHg 80%
    07:00 +27°C° 0 mm 1 m/s 728 mmHg 74%
    08:00 +29°C° 0 mm 1 m/s 728 mmHg 69%
    09:00 +31°C° 0 mm 1 m/s 729 mmHg 64%
    10:00 +32°C° 0 mm 1 m/s 729 mmHg 61%
    11:00 +34°C° 0 mm 2 m/s 728 mmHg 59%
    12:00 +35°C° 0 mm 2 m/s 728 mmHg 56%
    13:00 +34°C° 1,1 mm 2 m/s 727 mmHg 63%
    14:00 +32°C° 1,1 mm 2 m/s 727 mmHg 70%
    15:00 +31°C° 1,1 mm 2 m/s 726 mmHg 76%
    16:00 +30°C° 1,6 mm 2 m/s 726 mmHg 81%
    17:00 +28°C° 1,6 mm 1 m/s 726 mmHg 86%
    18:00 +27°C° 1,6 mm 1 m/s 727 mmHg 91%
    19:00 +26°C° 0,8 mm 1 m/s 727 mmHg 91%
    20:00 +26°C° 0,8 mm 1 m/s 728 mmHg 91%
    21:00 +26°C° 0,8 mm 1 m/s 729 mmHg 91%
    22:00 +25°C° 0,2 mm 1 m/s 729 mmHg 91%
    23:00 +25°C° 0,2 mm 1 m/s 729 mmHg 91%

    Depois de amanhã, 22 Outubro, Domingo

    Tempo Temperatura Precipitação Vento Pressão Humidade
    00:00 +25°C° 0,2 mm 1 m/s 728 mmHg 90%
    01:00 +25°C° 0,1 mm 1 m/s 728 mmHg 90%
    02:00 +25°C° 0,1 mm 1 m/s 728 mmHg 89%
    03:00 +25°C° 0,1 mm 1 m/s 727 mmHg 88%
    04:00 +25°C° 0,1 mm 1 m/s 728 mmHg 87%
    05:00 +25°C° 0,1 mm 1 m/s 728 mmHg 86%
    06:00 +25°C° 0,1 mm 1 m/s 728 mmHg 85%
    07:00 +27°C° 0 mm 1 m/s 729 mmHg 80%
    08:00 +28°C° 0 mm 1 m/s 729 mmHg 75%
    09:00 +30°C° 0 mm 1 m/s 730 mmHg 69%
    10:00 +30°C° 0,3 mm 1 m/s 730 mmHg 71%
    11:00 +31°C° 0,3 mm 1 m/s 729 mmHg 72%
    12:00 +31°C° 0,3 mm 2 m/s 729 mmHg 74%
    13:00 +31°C° 1,1 mm 2 m/s 728 mmHg 76%
    14:00 +30°C° 1,1 mm 1 m/s 727 mmHg 78%
    15:00 +30°C° 1,1 mm 1 m/s 727 mmHg 81%
    16:00 +29°C° 2,5 mm 1 m/s 727 mmHg 84%
    17:00 +28°C° 2,5 mm 1 m/s 727 mmHg 88%
    18:00 +27°C° 2,5 mm 1 m/s 727 mmHg 91%
    19:00 +27°C° 2,1 mm 1 m/s 728 mmHg 92%
    20:00 +27°C° 2,1 mm 1 m/s 729 mmHg 92%
    21:00 +26°C° 2,1 mm 1 m/s 729 mmHg 93%
    22:00 +26°C° 0,6 mm 1 m/s 729 mmHg 93%
    23:00 +26°C° 0,6 mm 1 m/s 729 mmHg 93%

    23 Outubro, Segunda-feira

    Tempo Temperatura Precipitação Vento Pressão Humidade
    00:00 +26°C° 0,6 mm 1 m/s 729 mmHg 93%
    01:00 +26°C° 0,1 mm 1 m/s 728 mmHg 92%
    02:00 +25°C° 0,1 mm 1 m/s 728 mmHg 92%
    03:00 +25°C° 0,1 mm 1 m/s 727 mmHg 91%
    04:00 +25°C° 0,1 mm 1 m/s 727 mmHg 90%
    05:00 +25°C° 0,1 mm 1 m/s 728 mmHg 89%
    06:00 +25°C° 0,1 mm 1 m/s 728 mmHg 88%
    07:00 +26°C° 0 mm 1 m/s 728 mmHg 85%
    08:00 +27°C° 0 mm 1 m/s 729 mmHg 81%
    09:00 +28°C° 0 mm 1 m/s 730 mmHg 77%
    10:00 +30°C° 0,1 mm 1 m/s 729 mmHg 73%
    11:00 +31°C° 0,1 mm 1 m/s 729 mmHg 70%
    12:00 +32°C° 0,1 mm 1 m/s 729 mmHg 67%
    13:00 +31°C° 0,8 mm 1 m/s 728 mmHg 72%
    14:00 +30°C° 0,8 mm 1 m/s 727 mmHg 77%
    15:00 +29°C° 0,8 mm 1 m/s 726 mmHg 82%
    16:00 +29°C° 1 mm 1 m/s 727 mmHg 84%
    17:00 +28°C° 1 mm 1 m/s 727 mmHg 87%
    18:00 +27°C° 1 mm 1 m/s 727 mmHg 89%
    19:00 +26°C° 0,4 mm 1 m/s 728 mmHg 90%
    20:00 +26°C° 0,4 mm 1 m/s 728 mmHg 90%
    21:00 +26°C° 0,4 mm 1 m/s 729 mmHg 91%
    22:00 +26°C° 0,2 mm 1 m/s 729 mmHg 91%
    23:00 +25°C° 0,2 mm 2 m/s 728 mmHg 91%

    24 Outubro, Terça-feira

    Tempo Temperatura Precipitação Vento Pressão Humidade
    00:00 +25°C° 0,2 mm 2 m/s 728 mmHg 91%
    01:00 +25°C° 0,1 mm 2 m/s 728 mmHg 90%
    02:00 +25°C° 0,1 mm 2 m/s 727 mmHg 89%
    03:00 +25°C° 0,1 mm 2 m/s 727 mmHg 88%
    04:00 +25°C° 0,1 mm 2 m/s 727 mmHg 87%
    05:00 +25°C° 0,1 mm 1 m/s 728 mmHg 86%
    06:00 +25°C° 0,1 mm 1 m/s 728 mmHg 85%
    07:00 +26°C° 0 mm 1 m/s 728 mmHg 82%
    08:00 +27°C° 0 mm 1 m/s 729 mmHg 78%
    09:00 +28°C° 0 mm 1 m/s 729 mmHg 75%
    10:00 +29°C° 0 mm 1 m/s 729 mmHg 72%
    11:00 +30°C° 0 mm 2 m/s 728 mmHg 69%
    12:00 +31°C° 0 mm 2 m/s 728 mmHg 66%
    13:00 +31°C° 0,1 mm 2 m/s 727 mmHg 67%
    14:00 +31°C° 0,1 mm 2 m/s 727 mmHg 69%
    15:00 +30°C° 0,1 mm 2 m/s 726 mmHg 71%
    16:00 +29°C° 0,1 mm 2 m/s 726 mmHg 74%
    17:00 +28°C° 0,1 mm 2 m/s 727 mmHg 78%
    18:00 +27°C° 0,1 mm 2 m/s 727 mmHg 81%
    19:00 +27°C° 0 mm 2 m/s 728 mmHg 80%
    20:00 +26°C° 0 mm 2 m/s 728 mmHg 79%
    21:00 +26°C° 0 mm 2 m/s 729 mmHg 77%
    22:00 +26°C° 0,1 mm 2 m/s 729 mmHg 77%
    23:00 +26°C° 0,1 mm 2 m/s 728 mmHg 77%

    25 Outubro, Quarta-feira

    Tempo Temperatura Precipitação Vento Pressão Humidade
    00:00 +25°C° 0,1 mm 2 m/s 728 mmHg 77%
    01:00 +25°C° 0,1 mm 2 m/s 728 mmHg 76%
    02:00 +25°C° 0,1 mm 2 m/s 727 mmHg 76%
    03:00 +26°C° 0,1 mm 2 m/s 727 mmHg 75%
    04:00 +25°C° 0 mm 2 m/s 727 mmHg 74%
    05:00 +25°C° 0 mm 2 m/s 728 mmHg 74%
    06:00 +25°C° 0 mm 2 m/s 728 mmHg 73%
    07:00 +26°C° 0,1 mm 2 m/s 729 mmHg 72%
    08:00 +27°C° 0,1 mm 2 m/s 729 mmHg 72%
    09:00 +27°C° 0,1 mm 3 m/s 730 mmHg 71%
    10:00 +28°C° 0,1 mm 3 m/s 729 mmHg 69%
    11:00 +29°C° 0,1 mm 2 m/s 729 mmHg 67%
    12:00 +29°C° 0,1 mm 2 m/s 729 mmHg 65%
    13:00 +29°C° 0,1 mm 3 m/s 728 mmHg 65%
    14:00 +29°C° 0,1 mm 3 m/s 728 mmHg 66%
    15:00 +29°C° 0,1 mm 3 m/s 727 mmHg 66%
    16:00 +28°C° 0 mm 3 m/s 728 mmHg 68%
    17:00 +27°C° 0 mm 3 m/s 728 mmHg 70%
    18:00 +26°C° 0 mm 2 m/s 729 mmHg 72%
    19:00 +26°C° 0 mm 3 m/s 729 mmHg 71%
    20:00 +26°C° 0 mm 3 m/s 730 mmHg 70%
    21:00 +26°C° 0 mm 3 m/s 730 mmHg 69%
    22:00 +25°C° 0 mm 3 m/s 730 mmHg 69%
    23:00 +25°C° 0 mm 3 m/s 729 mmHg 69%
    Mostrar mais